Tracking 29892 objects as of 21-Nov-2024
HD Live streaming from Space Station
objects crossing your sky now

CZ-6A DEB

Track CZ-6A DEB now!
10-day predictions


NORAD ID: 56594
Int'l Code: 2022-151ADS
Perigee: 830.8 km
Apogee: 873.0 km
Inclination: 98.8 °
Period: 101.8 minutes
Semi major axis: 7222 km
RCS: Unknown
Launch date: November 11, 2022
Source: People's Republic of China (PRC)
Launch site: Taiyaun Space Center, China (TSC)

Note: This is SATELLITE DEBRIS
Your satellite tracking list
Your tracking list is empty




NASA's NSSDC Master Catalog

Two Line Element Set (TLE):
1 56594U 22151ADS 24325.48929402  .00000512  00000-0  28974-3 0  9995
2 56594  98.7980 328.5713 0029189  97.3617 263.0874 14.14281841 86382
Source of the keplerian elements: AFSPC